Regional Weather Roundup
Issued by NWS Cleveland, OH

Home | Current Version | Previous Version | Text Only | Print | Product List | Glossary Off
Versions: 1 2 3 4 5 6 7 8 9 10 11 12 13 14 15 16 17 18 19 20 21 22 23 24 25 26 27 28 29 30 31 32 33 34 35 36 37 38 39 40 41 42 43 44 45 46 47 48 49 50

311
ASUS41 KCLE 271100
RWRCLE
OHIO REGIONAL WEATHER ROUNDUP
NATIONAL WEATHER SERVICE WILMINGTON, OH
700 AM EDT MON MAR 27 2017

NOTE: "FAIR" INDICATES FEW OR NO CLOUDS BELOW 12,000 FEET WITH NO
SIGNIFICANT WEATHER AND/OR OBSTRUCTIONS TO VISIBILITY.

OHZ001>008-015>018-024>027-034-035-043-044-271200-
   NORTHWEST OHIO

CITY           SKY/WX    TMP DP  RH WIND       PRES   REMARKS
DEFIANCE       CLOUDY    50  48  93 SW6       29.91S
FINDLAY        CLOUDY    53  49  86 SW6       29.92S
TOLEDO EXPRESS CLOUDY    51  51 100 SW8       29.90S
TOLEDO EXEC    CLOUDY    52  51  97 SW8       29.91S
LIMA           CLOUDY    51  50  96 SW6       29.93R
$$

OHZ009>014-019>023-028>033-038-089-271200-
   NORTHEAST OHIO

CITY           SKY/WX    TMP DP  RH WIND       PRES   REMARKS
CLE-HOPKINS    CLOUDY    56  50  80 SW9       29.95R
CLE-LAKEFRONT  CLOUDY    55  51  86 SW14      29.92R
CUY CO. ARPT   CLOUDY    55  54  94 SW12      29.92
LORAIN-ELYRIA  CLOUDY    52  48  86 SW12      29.93R
ASHTABULA      CLOUDY    54  52  93 SW9       29.92R
AKRON-CANTON   CLOUDY    53  49  86 SW7       29.95R
WOOSTER        NOT AVBL
MANSFIELD      CLOUDY    51  50  96 SW8       29.95R
YOUNGSTOWN     CLOUDY    54  51  90 SW8       29.95R
$$

OHZ042-051>053-060>062-070>072-077>081-271200-
  SOUTHWEST OHIO

CITY           SKY/WX    TMP DP  RH WIND       PRES   REMARKS
CINC-COVINGTON FAIR      48  46  93 CALM      29.97S FOG
CINC-LUNKEN    FOG       45  32  60 CALM      29.99S VSB 1/4
HAMILTON       FOG       43  43 100 CALM      29.98F VSB 1/4
DAYTON         NOT AVBL
WRIGHT-PAT AFB CLOUDY    50  50 100 S3        29.97S
DAYTON GENERAL CLOUDY    50  49  96 S3        29.97S
WILMINGTON     FOG       45  45 100 SW5       29.98R VSB 1/4
$$

OHZ036-037-039>041-045>050-054>059-063>069-073>076-082>088-271200-
  CENTRAL AND SOUTHEAST OHIO

CITY           SKY/WX    TMP DP  RH WIND       PRES   REMARKS
COLUMBUS       MOCLDY    50  49  96 SW3       29.97R
OSU AIRPORT    MOCLDY    49  49 100 SW7       29.97R FOG
BOLTON FIELD   NOT AVBL
RICKENBACK AFB NOT AVBL
NEWARK         FOG       46  44  93 S3        29.97R VSB 1/4
MARION         CLOUDY    51  49  92 S7        29.96R
LANCASTER      FOG       45  42  89 S3        29.99R VSB 1/4
ZANESVILLE     FAIR      52  50  93 SW5       29.98R
NEW PHILLY     MOCLDY    54  52  93 SW5       29.97R
$$




USA.gov is the U.S. government's official web portal to all federal, state and local government web resources and services.